Muncie, IN

6:38 PM EDT on April 29, 2017 (GMT -0400)
Delaware County-Johnson

Weather History for KMIE - January, 2013

Change the Weather History Date:

Friday, January 25, 2013

  Actual Average Record
Temperature  
Mean Temperature 23 °F 26 °F  
Max Temperature 27 °F 34 °F 65 °F (1967)
Min Temperature 19 °F 19 °F -6 °F (1987)
Degree Days  
Heating Degree Days 42 39  
Month to date heating degree days 813 966  
Since 1 July heating degree days 2904 3164  
Cooling Degree Days 0 0  
Month to date cooling degree days 0 0  
Year to date cooling degree days 0 0  
Moisture  
Dew Point 13 °F    
Average Humidity 65    
Maximum Humidity 77    
Minimum Humidity 52    
Precipitation  
Precipitation 0.09 in 0.07 in 0.29 in (1978)
Month to date precipitation 2.90 1.77  
Year to date precipitation 2.90 1.77  
Sea Level Pressure  
Sea Level Pressure 30.14 in    
Wind  
Wind Speed 8 mph (South)    
Max Wind Speed 14 mph    
Max Gust Speed 20 mph    
Visibility 6 miles    
Events Snow    
T = Trace of Precipitation, MM = Missing Value Source: NWS Daily Summary

Daily Weather History Graph

Daily Weather History Graph

Search for Another Location

Airport or City:

Trip Planner

Search our weather history database for the weather conditions in past years. The results will help you decide how hot, cold, wet, or windy it might be!

Date:

Astronomy

Jan. 25, 2013 Rise Set
Actual Time 7:56 AM EST 5:52 PM EST
Civil Twilight 7:27 AM EST 6:21 PM EST
Nautical Twilight 6:54 AM EST 6:54 PM EST
Astronomical Twilight 6:22 AM EST 7:26 PM EST
Moon 4:48 PM EST (1/25) 6:35 AM EST (1/25)
Length of Visible Light 10h 54m
Length of Day
9h 55m
Waxing Gibbous, 98% of the Moon is Illuminated
Jan 25
Waxing Gibbous
Jan 26
Full
Feb 3
Last Quarter
Feb 10
New
Feb 17
First Quarter

Hourly Weather History & Observations

Time (EST) Temp. Windchill Dew Point Humidity Pressure Visibility Wind Dir Wind Speed Gust Speed Precip Events Conditions
12:53 AM 19.9 °F 7.9 °F 6.1 °F 55% 30.40 in 10.0 mi SE 11.5 mph - N/A   Unknown
1:53 AM 19.9 °F 10.1 °F 6.1 °F 55% 30.40 in 10.0 mi SE 8.1 mph - N/A   Unknown
2:53 AM 19.9 °F 8.6 °F 6.1 °F 55% 30.36 in 10.0 mi SE 10.4 mph - N/A   Unknown
3:53 AM 21.0 °F 10.6 °F 6.1 °F 53% 30.33 in 10.0 mi SE 9.2 mph - N/A   Unknown
4:53 AM 21.0 °F 9.9 °F 6.1 °F 53% 30.29 in 10.0 mi SSE 10.4 mph - N/A   Unknown
5:53 AM 21.0 °F 10.6 °F 6.1 °F 53% 30.23 in 5.0 mi SE 9.2 mph - 0.00 in Snow Light Snow
6:26 AM 21.2 °F 8.3 °F 6.8 °F 54% 30.19 in 2.5 mi SE 13.8 mph 17.3 mph 0.00 in Snow Light Snow
6:34 AM 19.4 °F 6.0 °F 10.4 °F 68% 30.18 in 0.8 mi SSE 13.8 mph 18.4 mph 0.00 in Snow Light Snow
6:49 AM 19.4 °F 10.4 °F 12.2 °F 74% 30.18 in 0.8 mi SE 6.9 mph - 0.00 in Snow Light Snow
6:53 AM 19.0 °F 8.2 °F 12.9 °F 77% 30.21 in 1.0 mi SE 9.2 mph - 0.00 in Snow Light Snow
7:10 AM 19.4 °F 10.4 °F 12.2 °F 74% 30.17 in 0.8 mi SSE 6.9 mph - 0.01 in Snow Light Snow
7:20 AM 19.4 °F 9.5 °F 12.2 °F 74% 30.16 in 1.0 mi SE 8.1 mph - 0.01 in Snow Light Snow
7:53 AM 19.0 °F 9.0 °F 12.9 °F 77% 30.18 in 0.8 mi SSE 8.1 mph - 0.02 in Snow Light Snow
8:09 AM 19.4 °F 8.6 °F 12.2 °F 74% 30.13 in 0.5 mi SSE 9.2 mph - 0.01 in Snow Snow
8:36 AM 19.4 °F 9.5 °F 12.2 °F 74% 30.13 in 0.2 mi SSE 8.1 mph - 0.03 in Snow Heavy Snow
8:53 AM 19.0 °F 10.0 °F 14.0 °F 81% 30.17 in 0.2 mi SSE 6.9 mph - 0.04 in Snow Heavy Snow
9:07 AM 19.4 °F 11.5 °F 12.2 °F 74% 30.13 in 0.5 mi SE 5.8 mph - 0.01 in Snow Snow
9:19 AM 19.4 °F 11.5 °F 12.2 °F 74% 30.13 in 0.8 mi SSE 5.8 mph - 0.02 in Snow Light Snow
9:29 AM 19.4 °F 12.8 °F 12.2 °F 74% 30.13 in 1.2 mi SSE 4.6 mph - 0.02 in Snow Light Snow
9:41 AM 19.4 °F 12.8 °F 12.2 °F 74% 30.13 in 1.0 mi SSE 4.6 mph - 0.02 in Snow Light Snow
9:53 AM 19.0 °F 13.9 °F 12.9 °F 77% 30.16 in 2.0 mi SSE 3.5 mph - 0.02 in Snow Light Snow
10:06 AM 19.4 °F - 12.2 °F 74% 30.12 in 4.0 mi Calm Calm - 0.01 in Snow Light Snow
10:21 AM 19.4 °F - 14.0 °F 80% 30.13 in 1.8 mi Calm Calm - 0.01 in Snow Light Snow
10:45 AM 19.4 °F 11.5 °F 12.2 °F 74% 30.12 in 1.2 mi South 5.8 mph - 0.01 in Snow Light Snow
10:53 AM 19.9 °F 12.1 °F 12.9 °F 74% 30.15 in 1.2 mi South 5.8 mph - 0.01 in Snow Light Snow
10:56 AM 19.4 °F 11.5 °F 12.2 °F 74% 30.12 in 2.0 mi South 5.8 mph - 0.00 in Snow Light Snow
11:05 AM 19.4 °F 12.8 °F 12.2 °F 74% 30.12 in 5.0 mi South 4.6 mph - 0.00 in   Haze
11:53 AM 21.0 °F 11.4 °F 12.9 °F 71% 30.12 in 10.0 mi SSW 8.1 mph - 0.00 in   Overcast
12:53 PM 23.0 °F 15.8 °F 15.1 °F 72% 30.09 in 10.0 mi SW 5.8 mph - N/A   Overcast
1:25 PM 23.0 °F 13.9 °F 14.0 °F 68% 30.05 in 10.0 mi SW 8.1 mph - N/A   Overcast
1:53 PM 23.0 °F 13.9 °F 15.1 °F 72% 30.07 in 10.0 mi WSW 8.1 mph - N/A   Overcast
2:53 PM 24.1 °F 16.0 °F 15.1 °F 69% 30.04 in 10.0 mi WSW 6.9 mph - N/A   Overcast
3:53 PM 25.0 °F 16.3 °F 15.1 °F 66% 30.04 in 10.0 mi WSW 8.1 mph - N/A   Overcast
4:24 PM 24.8 °F 14.6 °F 15.8 °F 69% 30.03 in 10.0 mi West 10.4 mph - N/A   Overcast
4:53 PM 25.0 °F 14.8 °F 15.1 °F 66% 30.06 in 10.0 mi West 10.4 mph - N/A   Overcast
5:43 PM 24.8 °F 16.9 °F 15.8 °F 69% 30.02 in 10.0 mi West 6.9 mph - N/A   Overcast
5:53 PM 25.0 °F 16.3 °F 16.0 °F 69% 30.05 in 10.0 mi WSW 8.1 mph - N/A   Overcast
6:53 PM 26.1 °F 16.8 °F 16.0 °F 66% 30.06 in 10.0 mi WSW 9.2 mph - N/A   Overcast
7:53 PM 26.1 °F 20.5 °F 16.0 °F 66% 30.09 in 10.0 mi West 4.6 mph - N/A   Overcast
8:53 PM 26.1 °F 20.5 °F 17.1 °F 69% 30.09 in 10.0 mi WSW 4.6 mph - N/A   Overcast
9:02 PM 26.6 °F 19.1 °F 17.6 °F 69% 30.06 in 10.0 mi WSW 6.9 mph - N/A   Overcast
9:53 PM 27.0 °F 18.7 °F 17.1 °F 66% 30.09 in 10.0 mi SSW 8.1 mph - N/A   Overcast
10:53 PM 27.0 °F 16.7 °F 17.1 °F 66% 30.08 in 10.0 mi SW 11.5 mph - N/A   Overcast
11:53 PM 26.1 °F 16.2 °F 16.0 °F 66% 30.09 in 10.0 mi WSW 10.4 mph - N/A   Mostly Cloudy